Location: Veytaux
(46.4185°N, 6.9320°E)
Time: 07:17:03
(UTC+00:00)

Cosmos 2154 Rocket - Pass Details

Date: 27 May 2022
Orbit: 965 x 997 km, 82.9° (Epoch: 01 July)

Event Time Altitude Azimuth Distance (km) Brightness Sun altitude
Rises 01:22:50 0° 352° (N) 3,726 8.0 -17.6°
Reaches altitude 10° 01:25:24 10° 354° (N) 2,771 7.2 -17.4°
Maximum altitude 01:31:46 75° 80° (E) 1,029 4.2 -16.9°
Enters shadow 01:37:42 12° 166° (SSE) 2,607 5.8 -16.4°
